EDT,Max TemperatureF,Mean TemperatureF,Min TemperatureF,Max Dew PointF,MeanDew PointF,Min DewpointF,Max Humidity, Mean Humidity, Min Humidity, Max Sea Level PressureIn, Mean Sea Level PressureIn, Min Sea Level PressureIn, Max VisibilityMiles, Mean VisibilityMiles, Min VisibilityMiles, Max Wind SpeedMPH, Mean Wind SpeedMPH, Max Gust SpeedMPH,PrecipitationIn, CloudCover, Events, WindDirDegrees
2011-10-1,61,55,48,59,54,46,97,92,87,29.94,29.77,29.70,10,4,1,22,6,28,0.67,8,Rain,32
2011-10-2,58,53,47,55,53,46,100,97,93,30.02,29.96,29.94,10,4,1,18,12,24,0.33,8,Rain,32
2011-10-3,62,57,51,55,53,50,100,90,80,30.13,30.07,29.95,10,5,0,10,5,20,0.03,7,Fog-Rain,13
2011-10-4,56,53,50,54,52,48,100,95,89,30.11,30.00,29.89,10,4,0,21,7,26,0.76,8,Fog-Rain,15
2011-10-5,56,47,37,48,41,32,93,72,50,30.09,29.92,29.84,10,10,5,32,15,38,T,6,Rain,341
2011-10-6,50,42,33,31,25,20,76,53,29,30.32,30.20,30.10,10,10,10,21,10,37,0.00,1,,310
2011-10-7,57,42,27,39,30,25,92,62,32,30.44,30.37,30.31,10,10,10,12,2,20,0.00,3,,223
2011-10-8,80,60,40,55,48,39,100,69,37,30.32,30.26,30.20,10,10,10,14,3,23,0.00,3,,262
2011-10-9,84,67,49,58,49,43,83,55,26,30.23,30.16,30.10,10,10,10,16,3,21,0.00,5,,257
2011-10-10,76,61,45,55,45,34,89,57,25,30.15,30.07,30.01,10,10,10,24,6,31,0.00,1,,313
2011-10-11,62,51,39,41,38,35,92,67,42,30.29,30.24,30.16,10,10,10,13,5,16,0.00,3,,22
2011-10-12,57,47,37,47,43,36,100,81,62,30.32,30.27,30.19,10,10,10,12,2,16,0.00,7,,148
2011-10-13,60,55,49,58,54,46,96,93,89,30.17,30.00,29.86,10,4,2,9,4,13,0.48,8,Rain,76
2011-10-14,65,62,58,64,60,57,100,95,90,29.86,29.66,29.29,10,3,2,18,7,26,1.04,8,Rain,90
2011-10-15,64,58,52,63,51,41,97,75,52,29.52,29.39,29.25,10,8,2,24,14,37,0.09,6,Rain-Thunderstorm,187
2011-10-16,60,53,46,44,40,36,77,59,40,29.64,29.60,29.52,10,10,10,17,10,25,T,6,,215
2011-10-17,60,54,48,51,40,32,89,63,37,29.66,29.56,29.48,10,10,8,18,8,28,0.04,5,Rain,234
2011-10-18,61,53,45,45,42,40,86,69,51,29.95,29.79,29.66,10,10,10,13,5,20,0.00,6,,235
2011-10-19,58,51,44,49,46,42,93,78,62,30.10,30.01,29.86,10,9,3,18,4,23,0.26,7,Rain,61
2011-10-20,62,57,51,61,53,48,100,92,83,29.81,29.63,29.52,10,7,2,20,12,25,0.37,7,Rain,86
2011-10-21,60,51,42,50,45,41,92,73,53,29.89,29.74,29.60,10,10,10,18,8,23,0.00,4,,216
2011-10-22,56,48,40,48,44,39,93,82,71,30.01,29.95,29.90,10,9,1,13,2,16,0.12,7,Rain,312
2011-10-23,58,49,39,43,41,38,96,72,47,30.12,30.07,30.01,10,10,10,10,3,13,0.00,6,,257
2011-10-24,56,51,45,45,42,39,93,74,55,30.13,30.06,29.91,10,10,10,10,2,14,T,7,,173
2011-10-25,54,49,44,49,44,36,100,80,59,29.90,29.81,29.74,10,8,1,17,6,25,0.22,6,Fog-Rain,264
2011-10-26,54,45,35,35,31,28,76,59,41,29.87,29.81,29.76,10,10,10,16,7,20,0.00,2,,302
2011-10-27,43,40,36,32,28,24,82,67,51,29.81,29.78,29.73,10,10,10,12,4,15,T,8,,327
2011-10-28,47,38,28,29,23,18,75,54,33,30.22,30.01,29.83,10,10,10,24,8,30,0.00,3,,301
2011-10-29,43,34,25,33,26,22,84,65,45,30.31,30.16,29.94,10,8,2,17,5,22,0.17,6,Rain-Snow,17
2011-10-30,41,37,32,32,31,27,96,78,60,30.17,29.88,29.73,10,6,1,29,17,37,0.58,6,Rain-Snow,343
2011-10-31,49,39,28,30,26,24,82,61,39,30.42,30.34,30.21,10,10,10,10,5,16,0.00,1,,250